Location: Newark
(44.1906°N, 75.9681°W)
Time: 06:00:35
(UTC+00:00)

Envisat - Pass Details

Date: 24 January 2020
Orbit: 764 x 766 km, 98.1° (Epoch: 20 February)

Event Time Altitude Azimuth Distance (km) Brightness Sun altitude
Rises 10:10:51 0° 36° (NE) 3,240 6.7 -24.8°
Reaches altitude 10° 10:15:49 10° 79° (E) 2,304 6.5 -23.9°
Maximum altitude 10:16:27 10° 86° (E) 2,289 6.5 -23.8°
Drops below altitude 10° 10:17:04 10° 93° (E) 2,302 6.6 -23.7°
Sets 10:22:00 0° 136° (SE) 3,219 7.0 -22.8°
